• In Latvia
  • List of Countries
  • For 7 days
  • Water Temperature
  • Satellite Maps
  • Weather Map
  • Weather Widgets
  • user-avatar
    Login

    Hourly Weather Elbasan

    Today, 9 December, Friday

    Time Temperature Precipitation Wind Pressure Humidity
    00:00 +4°C° 0 mm 1 mps 747 mmHg 67%
    01:00 +4°C° 0 mm 1 mps 746 mmHg 62%
    02:00 +4°C° 0 mm 1 mps 746 mmHg 60%
    03:00 +3°C° 0 mm 0 mps 746 mmHg 58%
    04:00 +3°C° 0 mm 0 mps 745 mmHg 56%
    05:00 +3°C° 0 mm 0 mps 745 mmHg 54%
    06:00 +4°C° 0 mm 1 mps 745 mmHg 51%
    07:00 +4°C° 0 mm 1 mps 745 mmHg 49%
    08:00 +7°C° 0 mm 1 mps 745 mmHg 43%
    09:00 +9°C° 0 mm 1 mps 745 mmHg 37%
    10:00 +12°C° 0 mm 1 mps 745 mmHg 31%
    11:00 +12°C° 0 mm 1 mps 745 mmHg 34%
    12:00 +13°C° 0 mm 1 mps 745 mmHg 36%
    13:00 +13°C° 0 mm 1 mps 744 mmHg 39%
    14:00 +11°C° 0 mm 1 mps 744 mmHg 51%
    15:00 +9°C° 0 mm 1 mps 744 mmHg 63%
    16:00 +7°C° 0 mm 1 mps 743 mmHg 75%
    17:00 +6°C° 0 mm 1 mps 743 mmHg 76%
    18:00 +6°C° 0 mm 1 mps 743 mmHg 76%
    19:00 +5°C° 0 mm 1 mps 743 mmHg 77%
    20:00 +5°C° 0 mm 1 mps 743 mmHg 76%
    21:00 +5°C° 0 mm 1 mps 743 mmHg 74%
    22:00 +5°C° 0 mm 1 mps 743 mmHg 73%
    23:00 +5°C° 0 mm 1 mps 743 mmHg 72%

    Tomorrow, 10 December, Saturday

    Time Temperature Precipitation Wind Pressure Humidity
    00:00 +5°C° 0 mm 1 mps 743 mmHg 70%
    01:00 +5°C° 0 mm 1 mps 743 mmHg 69%
    02:00 +5°C° 0 mm 1 mps 743 mmHg 68%
    03:00 +5°C° 0 mm 1 mps 742 mmHg 67%
    04:00 +5°C° 0 mm 1 mps 742 mmHg 66%
    05:00 +5°C° 0 mm 1 mps 742 mmHg 63%
    06:00 +5°C° 0 mm 1 mps 742 mmHg 61%
    07:00 +5°C° 0 mm 1 mps 742 mmHg 59%
    08:00 +8°C° 0 mm 1 mps 742 mmHg 52%
    09:00 +10°C° 0 mm 1 mps 742 mmHg 45%
    10:00 +13°C° 0 mm 1 mps 742 mmHg 39%
    11:00 +14°C° 0 mm 1 mps 742 mmHg 39%
    12:00 +15°C° 0 mm 1 mps 742 mmHg 39%
    13:00 +16°C° 0 mm 1 mps 742 mmHg 39%
    14:00 +13°C° 0 mm 1 mps 741 mmHg 50%
    15:00 +10°C° 0 mm 1 mps 741 mmHg 61%
    16:00 +8°C° 0 mm 1 mps 741 mmHg 71%
    17:00 +7°C° 0 mm 1 mps 741 mmHg 73%
    18:00 +5°C° 0 mm 0 mps 741 mmHg 74%
    19:00 +5°C° 0 mm 0 mps 741 mmHg 75%
    20:00 +5°C° 0 mm 0 mps 741 mmHg 76%
    21:00 +5°C° 0 mm 0 mps 741 mmHg 77%
    22:00 +4°C° 0 mm 0 mps 741 mmHg 78%
    23:00 +4°C° 0 mm 0 mps 740 mmHg 77%

    Day after tomorrow, 11 December, Sunday

    Time Temperature Precipitation Wind Pressure Humidity
    00:00 +4°C° 0 mm 0 mps 740 mmHg 76%
    01:00 +4°C° 0 mm 0 mps 740 mmHg 76%
    02:00 +4°C° 0 mm 0 mps 740 mmHg 74%
    03:00 +4°C° 0 mm 0 mps 739 mmHg 73%
    04:00 +4°C° 0 mm 0 mps 739 mmHg 72%
    05:00 +4°C° 0 mm 0 mps 739 mmHg 72%
    06:00 +5°C° 0 mm 1 mps 739 mmHg 71%
    07:00 +5°C° 0 mm 1 mps 739 mmHg 70%
    08:00 +8°C° 0 mm 1 mps 739 mmHg 59%
    09:00 +11°C° 0 mm 1 mps 739 mmHg 48%
    10:00 +14°C° 0 mm 1 mps 739 mmHg 37%
    11:00 +14°C° 0 mm 1 mps 739 mmHg 39%
    12:00 +14°C° 0 mm 1 mps 738 mmHg 41%
    13:00 +15°C° 0 mm 1 mps 738 mmHg 44%
    14:00 +12°C° 0 mm 1 mps 737 mmHg 55%
    15:00 +10°C° 0 mm 1 mps 737 mmHg 66%
    16:00 +7°C° 0 mm 1 mps 736 mmHg 77%
    17:00 +7°C° 0 mm 1 mps 736 mmHg 79%
    18:00 +6°C° 0 mm 1 mps 736 mmHg 82%
    19:00 +6°C° 0 mm 1 mps 736 mmHg 84%
    20:00 +6°C° 0 mm 1 mps 736 mmHg 84%
    21:00 +5°C° 0 mm 1 mps 736 mmHg 84%
    22:00 +5°C° 0 mm 1 mps 736 mmHg 84%
    23:00 +5°C° 0 mm 1 mps 736 mmHg 85%

    12 December, Monday

    Time Temperature Precipitation Wind Pressure Humidity
    00:00 +5°C° 0 mm 1 mps 736 mmHg 85%
    01:00 +5°C° 0 mm 1 mps 736 mmHg 86%
    02:00 +5°C° 0 mm 1 mps 736 mmHg 86%
    03:00 +5°C° 0 mm 1 mps 735 mmHg 87%
    04:00 +5°C° 0 mm 1 mps 735 mmHg 87%
    05:00 +5°C° 0 mm 1 mps 735 mmHg 87%
    06:00 +4°C° 0 mm 1 mps 735 mmHg 87%
    07:00 +4°C° 0 mm 1 mps 735 mmHg 87%
    08:00 +7°C° 0 mm 1 mps 735 mmHg 77%
    09:00 +10°C° 0 mm 1 mps 736 mmHg 67%
    10:00 +11°C° 0 mm 0 mps 736 mmHg 57%
    11:00 +13°C° 0 mm 1 mps 735 mmHg 56%
    12:00 +13°C° 0 mm 1 mps 735 mmHg 54%
    13:00 +13°C° 0 mm 1 mps 735 mmHg 53%
    14:00 +12°C° 0 mm 1 mps 735 mmHg 63%
    15:00 +10°C° 0 mm 1 mps 735 mmHg 73%
    16:00 +8°C° 0 mm 1 mps 735 mmHg 83%
    17:00 +7°C° 0 mm 1 mps 735 mmHg 83%
    18:00 +7°C° 0 mm 1 mps 736 mmHg 84%
    19:00 +6°C° 0 mm 1 mps 736 mmHg 84%
    20:00 +6°C° 0 mm 1 mps 736 mmHg 82%
    21:00 +6°C° 0 mm 1 mps 737 mmHg 81%
    22:00 +5°C° 0 mm 2 mps 737 mmHg 80%
    23:00 +5°C° 0 mm 2 mps 737 mmHg 80%

    13 December, Tuesday

    Time Temperature Precipitation Wind Pressure Humidity
    00:00 +4°C° 0 mm 2 mps 737 mmHg 81%
    01:00 +4°C° 0 mm 2 mps 737 mmHg 81%
    02:00 +4°C° 0 mm 2 mps 737 mmHg 82%
    03:00 +4°C° 0 mm 2 mps 737 mmHg 82%
    04:00 +4°C° 0 mm 2 mps 737 mmHg 82%
    05:00 +3°C° 0 mm 2 mps 738 mmHg 83%
    06:00 +3°C° 0 mm 2 mps 738 mmHg 83%
    07:00 +3°C° 0 mm 2 mps 738 mmHg 83%
    08:00 +5°C° 0 mm 2 mps 739 mmHg 75%
    09:00 +7°C° 0 mm 2 mps 739 mmHg 67%
    10:00 +10°C° 0 mm 1 mps 739 mmHg 59%
    11:00 +11°C° 0 mm 1 mps 739 mmHg 56%
    12:00 +12°C° 0 mm 1 mps 739 mmHg 52%
    13:00 +13°C° 0 mm 1 mps 738 mmHg 49%
    14:00 +11°C° 0 mm 1 mps 738 mmHg 58%
    15:00 +9°C° 0 mm 1 mps 738 mmHg 68%
    16:00 +7°C° 0 mm 1 mps 738 mmHg 78%
    17:00 +6°C° 0 mm 1 mps 739 mmHg 79%
    18:00 +5°C° 0 mm 1 mps 739 mmHg 81%
    19:00 +5°C° 0 mm 1 mps 739 mmHg 82%
    20:00 +5°C° 0 mm 1 mps 739 mmHg 82%
    21:00 +5°C° 0 mm 1 mps 739 mmHg 81%
    22:00 +5°C° 0 mm 1 mps 739 mmHg 81%
    23:00 +4°C° 0 mm 1 mps 739 mmHg 81%

    14 December, Wednesday

    Time Temperature Precipitation Wind Pressure Humidity
    00:00 +4°C° 0 mm 1 mps 739 mmHg 82%
    01:00 +4°C° 0 mm 1 mps 739 mmHg 82%
    02:00 +4°C° 0 mm 1 mps 739 mmHg 82%
    03:00 +4°C° 0 mm 1 mps 739 mmHg 82%
    04:00 +4°C° 0 mm 1 mps 739 mmHg 82%
    05:00 +4°C° 0 mm 1 mps 739 mmHg 81%
    06:00 +4°C° 0 mm 1 mps 739 mmHg 81%
    07:00 +4°C° 0 mm 1 mps 739 mmHg 80%
    08:00 +6°C° 0 mm 1 mps 739 mmHg 70%
    09:00 +8°C° 0 mm 1 mps 739 mmHg 61%
    10:00 +10°C° 0 mm 0 mps 740 mmHg 51%
    11:00 +11°C° 0 mm 1 mps 739 mmHg 48%
    12:00 +12°C° 0 mm 1 mps 739 mmHg 45%
    13:00 +12°C° 0 mm 1 mps 739 mmHg 43%
    14:00 +10°C° 0 mm 1 mps 739 mmHg 52%
    15:00 +8°C° 0 mm 1 mps 739 mmHg 62%
    16:00 +6°C° 0 mm 1 mps 738 mmHg 71%
    17:00 +5°C° 0 mm 1 mps 739 mmHg 73%
    18:00 +5°C° 0 mm 1 mps 739 mmHg 75%
    19:00 +4°C° 0 mm 1 mps 739 mmHg 76%
    20:00 +4°C° 0 mm 1 mps 739 mmHg 77%
    21:00 +4°C° 0 mm 1 mps 739 mmHg 77%
    22:00 +4°C° 0 mm 1 mps 740 mmHg 77%
    23:00 +4°C° 0 mm 1 mps 740 mmHg 79%
    Show more